This is the latest recevied weather packets stored in our database for station/object W4KAB. If no packets are shown the sender has not sent any weather packets the latest 10 day(s).
| Time | Temp. | Humidity | Pressure | Rain* | Wind** | Luminosity | Snow |
|---|---|---|---|---|---|---|---|
| 1777990713 | 18.33° C | 63% | 1017.5 hPa | 0 mm | - | 44 W/m² | - |
| 1777990410 | 17.78° C | 64% | 1017.6 hPa | 0 mm | - | 48 W/m² | - |
| 1777989803 | 17.22° C | 65% | 1017.7 hPa | 0 mm | - | 46 W/m² | - |
| 1777989500 | 17.22° C | 66% | 1017.7 hPa | 0 mm | - | 39 W/m² | - |
| 1777989196 | 16.67° C | 67% | 1017.7 hPa | 0 mm | - | 41 W/m² | - |
| 1777988892 | 16.67° C | 69% | 1017.8 hPa | 0 mm | - | 49 W/m² | - |
| 1777988590 | 16.11° C | 68% | 1017.9 hPa | 0 mm | - | 35 W/m² | - |
| 1777988286 | 16.11° C | 70% | 1017.6 hPa | 0 mm | - | 34 W/m² | - |
| 1777987983 | 15.56° C | 70% | 1017.8 hPa | 0 mm | - | 39 W/m² | - |
| 1777987678 | 15° C | 72% | 1017.7 hPa | 0 mm | - | 40 W/m² | - |
| 1777987376 | 15° C | 73% | 1017.9 hPa | 0 mm | - | 25 W/m² | - |
| 1777987073 | 15° C | 72% | 1017.7 hPa | 0 mm | - | 24 W/m² | - |
| 1777986770 | 14.44° C | 75% | 1017.6 hPa | 0 mm | - | 23 W/m² | - |
| 1777986468 | 14.44° C | 75% | 1017.7 hPa | 0 mm | - | 22 W/m² | - |
| 1777986167 | 13.89° C | 75% | 1017.9 hPa | 0 mm | - | 23 W/m² | - |
| 1777985863 | 13.33° C | 77% | 1017.9 hPa | 0 mm | - | 20 W/m² | - |
| 1777985560 | 13.33° C | 80% | 1017.7 hPa | 0 mm | - | 19 W/m² | - |
| 1777985257 | 12.78° C | 82% | 1017.7 hPa | 0 mm | - | 20 W/m² | - |
| 1777984954 | 12.78° C | 82% | 1017.6 hPa | 0 mm | - | 19 W/m² | - |
| 1777984649 | 12.22° C | 83% | 1017.7 hPa | 0 mm | - | 20 W/m² | - |
| 1777984346 | 12.22° C | 84% | 1017.6 hPa | 0 mm | - | 19 W/m² | - |
| 1777984043 | 11.67° C | 84% | 1017.6 hPa | 0 mm | - | 17 W/m² | - |
| 1777983740 | 11.67° C | 85% | 1017.6 hPa | 0 mm | - | 18 W/m² | - |
| 1777983436 | 11.11° C | 86% | 1017.7 hPa | 0 mm | - | 17 W/m² | - |
| 1777983133 | 10.56° C | 86% | 1017.6 hPa | 0 mm | - | 17 W/m² | - |
* Rain latest hour (hover to see other rain measurements)
** Current wind speed in m/s (hover to see current wind gust speed)